This demonstration page uses our WeatherBlox Daily Observations layout. Learn more.

Left ArrowRight Arrow

39.29038, -76.61219

Hourly Observations for June 1, 2017

Temp ( °F °C ) Dew Point ( °F °C ) Humidity (%) Winds ( mph kmh ) Pressure ( in mb ) Visibility ( mi km ) Precip ( " mm )
12:54 am 00:54 undefined 67 19.4 62 16.7 84 84 undefined N/A 29.98 1015 N/A 0.00 0.00
1:54 am 01:54 undefined 66 18.9 62 16.7 87 87 undefined N/A 29.97 1015 N/A 0.00 0.00
2:54 am 02:54 undefined 65 18.3 60 15.6 84 84 undefined N/A 29.96 1015 N/A 0.00 0.00
3:54 am 03:54 undefined 64 17.8 60 15.6 87 87 undefined N/A 29.96 1015 N/A 0.00 0.00
4:54 am 04:54 undefined 65 18.3 56 13.3 73 73 undefined N/A 29.97 1015 N/A 0.00 0.00
5:54 am 05:54 undefined 64 17.8 55 12.8 73 73 undefined N/A 29.98 1015 N/A 0.00 0.00
6:54 am 06:54 undefined 66 18.9 55 12.8 68 68 undefined N/A 30.00 1016 N/A 0.00 0.00
7:54 am 07:54 undefined 70 21.1 55 12.8 59 59 undefined N/A 30.01 1016 N/A 0.00 0.00
8:54 am 08:54 undefined 72 22.2 56 13.3 57 57 undefined N/A 30.01 1016 N/A 0.00 0.00
9:54 am 09:54 undefined 77 25 56 13.3 48 48 undefined N/A 30.01 1016 N/A 0.00 0.00
10:54 am 10:54 undefined 80 26.7 49 9.4 34 34 undefined N/A 30.00 1016 N/A 0.00 0.00
11:54 am 11:54 undefined 80 26.7 45 7.2 29 29 undefined N/A 29.99 1016 N/A 0.00 0.00
12:54 pm 12:54 undefined 81 27.2 47 8.3 30 30 undefined N/A 29.98 1015 N/A 0.00 0.00
1:54 pm 13:54 undefined 81 27.2 46 7.8 29 29 undefined N/A 29.97 1015 N/A 0.00 0.00
2:54 pm 14:54 undefined 81 27.2 45 7.2 28 28 undefined N/A 29.96 1015 N/A 0.00 0.00
3:54 pm 15:54 undefined 83 28.3 48 8.9 30 30 undefined N/A 29.95 1014 N/A 0.00 0.00
4:54 pm 16:54 undefined 82 27.8 48 8.9 31 31 undefined N/A 29.95 1014 N/A 0.00 0.00
5:54 pm 17:54 undefined 81 27.2 44 6.7 27 27 undefined N/A 29.95 1014 N/A 0.00 0.00
6:54 pm 18:54 undefined 81 27.2 44 6.7 27 27 undefined N/A 29.94 1014 N/A 0.00 0.00
7:54 pm 19:54 undefined 72 22.2 64 17.8 76 76 undefined N/A 29.96 1015 N/A 0.00 0.00
8:54 pm 20:54 undefined 77 25 45 7.2 32 32 undefined N/A 29.97 1015 N/A 0.00 0.00
9:54 pm 21:54 undefined 75 23.9 45 7.2 34 34 undefined N/A 29.99 1016 N/A 0.00 0.00
10:54 pm 22:54 undefined 73 22.8 46 7.8 38 38 undefined N/A 29.99 1016 N/A 0.00 0.00
11:54 pm 23:54 undefined 71 21.7 48 8.9 44 44 undefined N/A 29.99 1016 N/A 0.00 0.00

Powered by AerisWeather